Location: Hawks Ness
(60.2333°N, 1.1667°W)
Time: 21:56:56
(UTC+00:00)

Cosmos 2333 Rocket - Pass Details

Date: 22 October 2019
Orbit: 838 x 863 km, 70.8° (Epoch: 10 November)

Event Time Altitude Azimuth Distance (km) Brightness Sun altitude
Exits shadow 05:33:37 15° 262° (W) 2,164 3.7 -11.4°
Maximum altitude 05:38:07 43° 330° (NNW) 1,181 2.7 -10.9°
Drops below altitude 10° 05:43:36 10° 42° (NE) 2,503 5.2 -10.2°
Sets 05:46:13 0° 49° (NE) 3,446 6.1 -9.9°
